Location: �bnet
(46.9957°N, 8.4908°E)
Time: 02:58:58
(UTC+00:00)

Cosmos 44 Rocket - Pass Details

Date: 11 May 2021
Orbit: 636 x 753 km, 65.1° (Epoch: 23 June)

Event Time Altitude Azimuth Distance (km) Brightness Sun altitude
Rises 23:21:58 0° 325° (NW) 3,215 7.6 -24.9°
Reaches altitude 10° 23:24:26 10° 330° (NNW) 2,285 6.7 -24.9°
Maximum altitude 23:29:35 54° 48° (NE) 905 4.0 -24.8°
Enters shadow 23:31:24 36° 104° (ESE) 1,163 4.3 -24.8°
